sat.trackr.live / text

‹ back to catalog

STARLINK-30226

NORAD 57497 · 2023-113C

PAYLOAD ACTIVE UNKNOWN

§ Identity

Operator
Country
US
Launch date
2023-08-07
Launch site
AFETR
Launch vehicle
Mass (kg)
RCS (m²)

Purposes: comms

External: N2YO · Heavens-Above · Gunter

§ Orbital elements

Epoch: 2026-09-19T13:19:37.457760Z

Period
94.27 min
Inclination
43.0025°
Eccentricity
0.0001243
Mean motion
15.27566867 rev/d
Perigee alt
482.2 km
Apogee alt
483.9 km
Semi-major
6,861.2 km
B*
5.5117e-5
RAAN
1.3009°
Arg perigee
264.2557°
Mean anomaly
95.8153°
Rev number
17,322

§ Raw data

STARLINK-302261 57497U 23113C   26262.55529465  .00001254  00000+0  55117-4 0  99952 57497  43.0025   1.3009 0001243 264.2557  95.8153 15.27566867173221

JSON: /api/v1/satellites/57497 · /tle

For live sub-satellite position, see the globe view (requires WebGL).

§ Visibility from observer

Set your observer location to see the next 7 days of passes ≥ 10°. The values pass through the URL so the page stays shareable.

No JS? Fill the form by hand. The geolocation button needs JavaScript.